This demonstration page uses our WeatherBlox Daily Observations layout. Learn more.

Left ArrowRight Arrow

Hourly Observations for January 6, 2022

Temp ( °F °C ) Dew Point ( °F °C ) Humidity (%) Winds ( mph kmh ) Pressure ( in mb ) Visibility ( mi km ) Precip ( " mm )
12:54 am 00:54 Mostly Cloudy 6 -14.4 -5 -20.6 60 60 NNW 15 24 30.40 1030 10 16 0.00 0.00
1:54 am 01:54 Cloudy 6 -14.4 -6 -21.1 57 57 NNW 16 26 30.42 1030 10 16 0.00 0.00
2:54 am 02:54 Clear 4 -15.6 -7 -21.7 60 60 NNW 16 26 30.43 1030 10 16 0.00 0.00
3:54 am 03:54 Mostly Cloudy 4 -15.6 -8 -22.2 57 57 NNW 15 24 30.45 1031 10 16 0.00 0.00
4:54 am 04:54 Mostly Cloudy 3 -16.1 -7 -21.7 62 62 NW 13 20 30.45 1031 10 16 0.00 0.00
5:54 am 05:54 Mostly Clear 2 -16.7 -9 -22.8 59 59 NNW 21 33 30.48 1032 10 16 0.00 0.00
6:54 am 06:54 Clear 2 -16.7 -9 -22.8 59 59 NNW 14 22 30.48 1032 10 16 0.00 0.00
7:54 am 07:54 Sunny 0 -17.8 -10 -23.3 62 62 NNW 16 26 30.49 1033 10 16 0.00 0.00
8:54 am 08:54 Sunny 0 -17.8 -11 -23.9 59 59 NNW 16 26 30.50 1033 10 16 0.00 0.00
9:54 am 09:54 Sunny 2 -16.7 -10 -23.3 57 57 NNW 16 26 30.52 1034 10 16 0.00 0.00
10:54 am 10:54 Sunny 3 -16.1 -10 -23.3 54 54 NW 12 19 30.53 1034 10 16 0.00 0.00
11:54 am 11:54 Sunny 6 -14.4 -9 -22.8 49 49 NW 14 22 30.49 1033 10 16 0.00 0.00
12:54 pm 12:54 Sunny 8 -13.3 -8 -22.2 47 47 NNW 15 24 30.45 1031 10 16 0.00 0.00
1:54 pm 13:54 Sunny 10 -12.2 -8 -22.2 43 43 NW 12 19 30.42 1030 10 16 0.00 0.00
2:54 pm 14:54 Sunny 11 -11.7 -8 -22.2 42 42 NW 14 22 30.40 1030 10 16 0.00 0.00
3:54 pm 15:54 Sunny 12 -11.1 -8 -22.2 40 40 NNW 9 15 30.39 1029 10 16 0.00 0.00
4:54 pm 16:54 Sunny 9 -12.8 -8 -22.2 46 46 N 8 13 30.41 1030 10 16 0.00 0.00
5:54 pm 17:54 Clear 8 -13.3 -8 -22.2 47 47 NW 5 7 30.40 1029 10 16 0.00 0.00
6:54 pm 18:54 Clear 7 -13.9 -7 -21.7 52 52 WNW 3 6 30.40 1029 10 16 0.00 0.00
7:54 pm 19:54 Clear 6 -14.4 -6 -21.1 57 57 NW 3 6 30.39 1029 10 16 0.00 0.00
8:54 pm 20:54 Clear 5 -15 -8 -22.2 54 54 Calm 30.41 1030 10 16 0.00 0.00
9:54 pm 21:54 Partly Cloudy 4 -15.6 -5 -20.6 66 66 N 6 9 30.39 1029 10 16 0.00 0.00
10:54 pm 22:54 Mostly Cloudy 4 -15.6 -4 -20 69 69 NNE 5 7 30.38 1029 10 16 0.00 0.00
11:54 pm 23:54 Cloudy 7 -13.9 -7 -21.7 52 52 E 7 11 30.33 1027 10 16 0.00 0.00

Powered by AerisWeather